TimeCET,TemperatureF,Dew PointF,Humidity,Sea Level PressureIn,VisibilityMPH,Wind Direction,Wind SpeedMPH,Gust SpeedMPH,PrecipitationIn,Events,Conditions,WindDirDegrees,DateUTC
12:20 AM,42.8,42.8,100,29.65,6.2,WNW,4.6,-,N/A,Fog,Patches of Fog,290,2013-03-08 23:20:00
12:50 AM,41.0,41.0,100,29.65,6.2,NW,3.5,-,N/A,Fog,Patches of Fog,310,2013-03-08 23:50:00
1:20 AM,41.0,41.0,100,29.65,6.2,NNW,2.3,-,N/A,Fog,Patches of Fog,330,2013-03-09 00:20:00
1:50 AM,42.8,42.8,100,29.65,6.2,North,3.5,-,N/A,Fog,Patches of Fog,350,2013-03-09 00:50:00
2:20 AM,42.8,42.8,100,29.65,4.3,NNW,3.5,-,N/A,Fog,Patches of Fog,340,2013-03-09 01:20:00
2:50 AM,41.0,41.0,100,29.65,4.3,NW,4.6,-,N/A,Fog,Patches of Fog,310,2013-03-09 01:50:00
3:20 AM,41.0,41.0,100,29.65,3.1,NW,3.5,-,N/A,Fog,Patches of Fog,310,2013-03-09 02:20:00
3:50 AM,39.2,39.2,100,29.65,0.4,NW,4.6,-,N/A,Fog,Fog,310,2013-03-09 02:50:00
4:20 AM,39.2,39.2,100,29.65,0.4,WNW,3.5,-,N/A,Fog,Fog,300,2013-03-09 03:20:00
4:50 AM,39.2,39.2,100,29.65,0.2,WNW,3.5,-,N/A,Fog,Fog,300,2013-03-09 03:50:00
5:20 AM,41.0,41.0,100,29.62,0.2,NW,4.6,-,N/A,Fog,Fog,320,2013-03-09 04:20:00
5:50 AM,37.4,37.4,100,29.62,0.7,WNW,3.5,-,N/A,Fog,Patches of Fog,300,2013-03-09 04:50:00
6:20 AM,37.4,37.4,100,29.62,0.7,WNW,4.6,-,N/A,Fog,Patches of Fog,290,2013-03-09 05:20:00
6:50 AM,39.2,39.2,100,29.62,0.6,West,5.8,-,N/A,Fog,Patches of Fog,280,2013-03-09 05:50:00
7:20 AM,39.2,39.2,100,29.62,0.2,WNW,4.6,-,N/A,Fog,Fog,300,2013-03-09 06:20:00
7:50 AM,39.2,39.2,100,29.62,0.2,WNW,4.6,-,N/A,Fog,Fog,290,2013-03-09 06:50:00
8:20 AM,41.0,41.0,100,29.65,0.2,WNW,3.5,-,N/A,Fog,Fog,290,2013-03-09 07:20:00
8:50 AM,42.8,42.8,100,29.65,0.4,NW,3.5,-,N/A,Fog,Fog,320,2013-03-09 07:50:00
9:20 AM,44.6,44.6,100,29.65,0.7,West,4.6,-,N/A,,Mist,280,2013-03-09 08:20:00
10:20 AM,44.6,44.6,100,29.65,0.6,SW,3.5,-,N/A,,Scattered Clouds,220,2013-03-09 09:20:00
10:50 AM,46.4,46.4,100,29.65,0.6,West,2.3,-,N/A,,Mostly Cloudy,270,2013-03-09 09:50:00
11:20 AM,48.2,48.2,100,29.65,2.5,Calm,Calm,-,N/A,,Mostly Cloudy,0,2013-03-09 10:20:00
11:50 AM,50.0,50.0,100,29.65,5.6,Variable,1.2,-,N/A,,Mostly Cloudy,0,2013-03-09 10:50:00
12:20 PM,50.0,48.2,94,29.65,5.6,Variable,2.3,-,N/A,,Mostly Cloudy,0,2013-03-09 11:20:00
12:50 PM,50.0,48.2,94,29.65,5.6,Variable,2.3,-,N/A,,Mostly Cloudy,0,2013-03-09 11:50:00
1:20 PM,51.8,48.2,88,29.62,6.2,WNW,4.6,-,N/A,,Mostly Cloudy,300,2013-03-09 12:20:00
1:50 PM,51.8,46.4,82,29.62,6.2,WNW,4.6,-,N/A,,Mostly Cloudy,290,2013-03-09 12:50:00
2:20 PM,51.8,48.2,88,29.59,6.2,WNW,4.6,-,N/A,,Drizzle,290,2013-03-09 13:20:00
2:50 PM,53.6,46.4,77,29.59,6.2,West,4.6,-,N/A,,Light Drizzle,280,2013-03-09 13:50:00
3:20 PM,53.6,46.4,77,29.59,6.2,West,4.6,-,N/A,,Overcast,280,2013-03-09 14:20:00
4:20 PM,51.8,48.2,88,29.59,6.2,South,2.3,-,N/A,Rain,Light Rain,190,2013-03-09 15:20:00
4:50 PM,50.0,50.0,100,29.59,6.2,South,3.5,-,N/A,Rain,Light Rain,190,2013-03-09 15:50:00
5:20 PM,50.0,48.2,94,29.59,6.2,South,4.6,-,N/A,Rain,Light Rain,190,2013-03-09 16:20:00
5:50 PM,50.0,48.2,94,29.59,6.2,SSW,5.8,-,N/A,Rain,Light Rain,200,2013-03-09 16:50:00
6:20 PM,48.2,48.2,100,29.59,2.2,SSW,5.8,-,N/A,Rain,Light Rain,200,2013-03-09 17:20:00
6:50 PM,48.2,48.2,100,29.59,1.6,SSW,2.3,-,N/A,Rain,Light Rain,210,2013-03-09 17:50:00
7:20 PM,48.2,48.2,100,29.59,2.5,SW,2.3,-,N/A,,Overcast,230,2013-03-09 18:20:00
7:50 PM,48.2,48.2,100,29.62,2.2,SW,4.6,-,N/A,,Overcast,220,2013-03-09 18:50:00
8:20 PM,48.2,48.2,100,29.62,1.6,SSW,4.6,-,N/A,,Overcast,210,2013-03-09 19:20:00
8:50 PM,48.2,48.2,100,29.62,1.6,SW,2.3,-,N/A,,Overcast,230,2013-03-09 19:50:00
9:20 PM,46.4,46.4,100,29.59,5.0,West,4.6,-,N/A,,Scattered Clouds,270,2013-03-09 20:20:00
9:50 PM,44.6,44.6,100,29.62,5.0,West,3.5,-,N/A,,Scattered Clouds,270,2013-03-09 20:50:00
10:20 PM,44.6,42.8,93,29.59,5.0,SSW,3.5,-,N/A,,Scattered Clouds,200,2013-03-09 21:20:00
10:50 PM,42.8,42.8,100,29.59,0.7,South,3.5,-,N/A,Fog,Patches of Fog,190,2013-03-09 21:50:00
11:20 PM,42.8,42.8,100,29.59,0.2,South,4.6,-,N/A,Fog,Fog,190,2013-03-09 22:20:00
11:50 PM,44.6,44.6,100,29.62,0.1,South,3.5,-,N/A,Fog,Fog,190,2013-03-09 22:50:00